Temperature
19 19 19 19 19 19 19 19 20 20 19 19 19 19 19 19 19 19 19 19 19 19 19 19 19 19 19 19 19 19 19 19 19 19 19 18 18 19 19 19 19 18 19
20 19 19 20 20 20 20 20 20 20 19 19 19 19 19 19 19 19 19 19 19 19 19 19 19 19 19 19 19 19 19 19 19 19 19 19 19 19 19 19 19 19 19
20 19 19 19 20 20 20 20 20 20 19 19 19 19 19 19 19 19 19 19 19 19 19 19 19 19 19 19 19 19 19 19 18 19 19 18 18 19 19 19 19 19 19
20 19 19 19 19 19 20 20 19 19 19 19 19 19 19 19 19 19 19 19 19 19 19 19 19 19 19 19 18 18 18 18 18 18 18 18 18 19 19 19 18 19 19
20 19 19 19 19 19 19 19 19 19 19 19 19 19 19 19 19 19 19 19 19 18 18 18 18 18 18 18 18 18 18 18 18 18 18 18 18 19 19 18 19 19 19
19 19 19 20 19 19 19 19 19 19 19 19 19 19 19 19 19 19 18 18 18 18 18 18 18 18 18 18 18 18 18 18 18 17 17 18 18 19 19 18 18 19 18
19 19 19 20 19 19 19 19 19 19 19 19 19 19 19 19 19 19 18 18 18 18 18 18 18 18 18 18 18 18 18 18 17 17 17 17 18 18 18 18 18 18 18
20 19 19 20 19 19 19 19 19 19 19 19 19 19 19 19 18 18 18 18 18 18 18 19 19 18 18 18 18 18 18 18 17 17 17 17 18 18 18 18 18 18 18
20 19 19 19 19 19 19 19 19 19 19 19 19 19 19 18 18 18 18 17 17 17 18 18 18 18 18 18 18 18 18 18 17 17 17 17 18 18 18 18 18 18 18
20 19 19 19 18 18 18 19 18 18 19 19 19 19 19 19 18 18 18 18 17 17 18 18 18 18 18 18 18 18 18 18 17 17 17 17 18 18 18 18 18 18 18
20 20 19 19 19 18 18 18 18 18 18 18 18 18 18 18 18 18 17 18 17 17 17 18 18 18 18 18 18 18 18 17 17 17 17 18 18 18 18 18 18 18 18
20 20 20 19 19 18 18 18 18 18 18 18 18 18 18 17 17 18 18 17 17 17 18 18 18 18 18 18 18 18 17 17 18 18 17 18 18 18 18 18 18 18 18
21 20 19 19 19 19 18 18 18 18 18 18 18 18 18 17 17 17 17 17 17 17 17 17 17 17 18 17 17 17 17 17 18 17 17 18 18 18 18 18 18 18 18
21 20 20 19 19 19 19 18 18 18 18 18 18 17 18 17 17 18 18 18 17 16 16 17 17 17 18 18 17 18 17 17 17 17 17 18 18 17 17 18 18 18 19
21 20 20 20 20 19 19 18 18 18 18 18 18 18 18 18 18 18 18 17 17 17 17 17 18 18 18 18 17 17 18 17 16 16 16 17 17 17 17 17 17 18 19
22 21 21 20 20 19 19 18 18 18 18 18 18 18 18 18 18 17 18 17 17 17 17 17 18 17 17 17 17 17 17 17 16 16 16 16 17 17 17 17 17 17 18
22 22 21 20 20 20 19 19 18 18 18 18 18 18 17 18 17 17 17 17 17 17 17 17 17 17 17 17 16 17 17 16 16 16 16 16 16 17 17 17 17 17 17
22 22 21 20 20 20 19 19 19 18 18 18 18 18 18 17 17 17 17 17 17 17 17 17 17 17 17 17 17 16 16 16 16 16 16 16 16 16 16 17 17 17 17
22 21 21 21 21 20 19 19 19 19 18 18 18 18 18 18 17 17 17 17 17 17 17 17 17 17 17 17 16 16 16 16 16 16 17 16 16 16 16 16 17 17 17
21 21 21 21 21 20 20 19 19 19 18 18 18 18 17 17 17 17 17 17 17 17 17 16 16 16 16 16 17 16 16 16 16 16 16 16 16 16 16 16 16 16 17
21 21 21 21 21 20 20 20 19 19 19 18 18 18 18 17 17 17 17 17 17 17 17 16 16 16 16 16 16 16 16 16 16 16 16 16 16 16 16 16 16 16 16
20 21 21 21 21 20 20 20 20 19 19 19 19 18 18 17 17 17 17 17 17 17 16 16 16 16 16 16 16 16 17 17 16 16 16 16 16 16 16 16 16 16 16
19 20 21 22 21 20 20 19 20 20 20 19 19 18 18 18 17 17 17 17 17 16 16 16 16 16 16 16 16 16 17 18 18 17 16 16 16 16 16 16 16 16 15
18 19 20 21 21 20 19 19 20 20 19 19 18 18 18 17 17 17 17 17 16 16 16 17 17 16 16 16 16 15 16 17 16 17 16 16 16 16 16 15 16 16 15
16 18 19 19 20 19 18 18 19 19 18 18 17 17 17 17 17 17 17 17 16 16 16 16 16 16 16 15 15 15 15 15 15 16 16 16 16 15 15 15 16 15 15
16 16 17 17 17 17 17 17 18 18 18 17 16 16 17 17 17 17 17 17 17 16 16 16 16 15 15 15 15 15 15 14 15 15 15 15 15 15 15 15 15 15 15
Wind_Speed
12 15 18 17 17 17 16 15 16 15 13 13 13 12 11 11 10 10 9 9 8 7 7 7 7 7 7 7 8 8 8 8 7 7 7 5 4 5 6 4 1 4 6
15 17 20 17 16 16 15 15 15 14 13 13 13 12 11 11 10 9 9 9 8 8 8 8 7 7 6 6 8 9 8 7 5 5 5 6 6 4 4 5 5 6 6
16 16 19 18 17 16 16 15 14 14 13 13 12 12 11 11 10 9 9 9 8 7 7 8 7 7 7 6 6 8 9 9 8 7 4 5 6 4 4 4 5 7 7
16 15 17 18 17 17 16 15 14 13 13 13 12 12 11 10 9 9 10 9 8 7 7 7 7 7 7 7 6 7 8 9 9 6 4 3 3 7 4 3 4 6 8
15 15 15 17 15 16 16 15 14 13 13 13 13 12 11 9 9 8 9 9 9 9 9 8 8 8 7 6 6 6 7 7 7 4 2 2 2 6 3 3 4 5 7
15 14 15 16 14 14 15 14 14 14 14 14 13 11 10 9 8 7 7 9 10 10 10 10 9 9 9 7 7 6 8 8 6 3 1 1 3 5 3 3 3 4 6
14 13 14 14 14 14 14 14 15 15 15 14 13 11 10 9 7 6 7 9 10 10 10 10 10 11 11 9 7 8 10 7 5 3 1 2 5 3 2 1 2 5 6
13 13 13 14 12 13 14 15 16 16 16 16 14 13 11 10 8 7 8 9 9 10 9 9 9 10 10 10 7 7 6 5 6 3 3 4 7 4 3 2 1 4 6
12 12 12 14 14 13 12 13 15 17 17 16 15 14 12 11 9 8 8 9 9 9 8 8 8 8 9 9 8 7 7 3 3 3 4 5 6 6 5 5 3 3 4
11 11 11 12 12 13 13 13 14 15 17 16 15 14 13 12 10 8 9 8 7 8 7 6 6 7 8 8 8 6 3 4 2 2 2 6 6 5 5 5 4 3 2
10 11 11 10 10 11 12 13 13 13 15 16 14 14 13 12 11 10 8 8 7 8 6 5 5 5 4 8 7 3 4 2 1 1 1 6 4 3 2 3 3 3 2
13 12 10 10 10 11 10 11 11 12 14 14 13 14 11 8 7 6 12 8 9 9 7 5 4 5 6 5 7 5 1 1 3 2 3 7 5 1 1 1 1 1 1
12 11 10 10 10 10 8 9 9 9 11 12 12 13 10 8 7 6 8 10 10 9 7 7 7 4 3 3 2 2 2 3 3 4 4 9 8 6 4 4 3 2 2
11 11 11 10 10 10 9 7 7 7 8 9 11 13 10 7 6 6 6 7 7 6 4 4 2 4 3 4 3 2 2 2 4 4 5 8 8 8 6 6 6 5 4
11 11 11 11 10 9 8 6 7 8 9 9 9 10 10 7 7 6 6 5 6 6 7 5 4 4 3 3 2 1 2 2 3 3 3 5 7 7 6 5 5 6 6
12 12 12 12 11 10 9 8 7 8 8 9 10 11 11 9 7 6 6 6 6 7 7 6 4 4 3 2 2 1 0 1 2 3 4 4 6 8 6 3 3 5 6
12 13 12 12 12 11 10 9 7 8 9 9 9 11 11 10 8 7 6 7 7 8 8 5 4 3 3 3 3 1 0 2 2 3 4 4 4 7 8 5 1 1 3
13 13 12 11 13 12 11 10 8 9 9 9 9 10 12 12 10 7 6 6 7 8 7 5 4 4 4 4 3 2 2 1 1 3 3 2 4 4 7 9 6 3 3
14 14 14 15 14 14 13 11 9 9 9 9 10 10 12 13 11 9 6 5 8 7 7 6 6 5 4 4 3 3 4 3 2 2 2 1 2 3 3 7 9 8 4
13 14 16 15 15 14 12 11 9 9 9 9 9 10 11 11 12 10 7 8 8 7 6 7 7 6 5 5 5 5 5 5 4 3 2 3 2 1 2 2 3 7 8
12 15 16 16 16 14 13 12 11 11 10 9 9 10 11 12 12 11 7 8 8 8 9 10 9 9 7 6 6 6 6 7 7 5 4 4 3 2 2 1 0 2 6
11 15 18 18 17 17 14 14 12 11 9 9 8 9 11 12 11 10 9 8 9 9 12 12 10 9 8 7 7 7 6 7 7 7 6 5 6 5 4 3 3 2 2
10 12 13 15 15 15 15 11 10 9 6 6 8 8 10 11 11 10 10 10 9 8 7 9 10 11 9 9 9 7 6 5 4 6 8 7 7 6 6 5 4 4 3
11 10 9 9 11 13 12 12 14 9 6 6 6 7 9 10 10 10 10 9 8 7 8 9 9 8 9 9 8 9 10 7 6 4 6 8 8 8 8 6 6 5 5
10 8 4 4 7 9 9 9 9 7 5 3 1 4 7 7 8 8 8 8 8 8 9 8 8 9 8 9 8 8 9 8 11 9 6 6 6 8 8 8 7 6 6
9 8 4 5 7 8 10 10 11 12 11 7 2 2 3 3 4 7 8 8 8 8 8 8 8 9 9 9 9 9 8 8 9 9 9 8 6 5 7 7 7 7 8
Wind_Direction
156 156 150 148 149 148 147 144 139 136 138 140 137 133 128 120 112 105 101 102 104 102 104 100 101 106 110 123 140 138 124 116 117 107 89 82 105 81 53 44 8 109 101
153 154 151 155 155 154 153 151 146 144 142 138 134 133 133 129 122 118 108 96 94 92 91 90 93 93 96 104 119 123 117 111 126 118 104 111 108 83 50 44 34 81 104
151 153 156 161 162 161 160 158 155 151 146 141 140 141 135 130 128 123 118 102 89 84 84 82 81 84 82 84 98 110 110 103 104 120 165 125 112 82 48 59 77 83 89
154 157 160 159 166 168 168 166 162 159 155 151 147 140 134 132 130 123 115 108 98 87 79 74 70 73 77 77 89 108 119 119 121 171 176 107 94 78 48 57 85 88 89
157 160 155 160 166 170 173 173 168 165 160 157 151 145 142 136 128 121 117 111 100 90 81 75 68 65 71 85 99 117 127 132 133 204 120 100 65 74 68 90 98 102 102
162 163 160 167 172 175 175 173 169 167 165 163 158 154 150 143 135 131 126 118 107 97 87 79 71 59 56 73 93 117 127 132 171 167 132 53 56 78 80 117 135 137 125
165 166 165 172 176 177 177 176 174 170 167 164 162 157 149 140 136 136 135 132 122 110 97 87 79 66 51 53 77 107 127 150 164 144 96 43 51 72 95 151 185 160 150
166 171 167 171 182 184 184 183 181 173 168 164 162 158 151 142 136 133 133 126 120 112 104 94 83 73 62 53 70 96 129 184 135 121 94 67 57 65 85 83 156 165 157
171 177 178 177 183 188 189 186 182 174 168 164 163 160 154 147 142 138 133 130 128 120 111 100 84 71 64 60 69 87 92 70 128 107 97 74 62 65 76 82 69 91 138
182 186 187 185 184 182 184 186 181 175 169 165 164 162 159 152 150 150 153 135 137 128 117 99 85 78 72 71 76 90 110 212 106 127 88 71 52 59 75 89 82 79 102
191 193 192 192 185 184 183 177 181 180 173 165 166 166 171 172 163 170 137 138 149 130 115 100 89 89 105 104 93 102 225 257 83 307 42 52 42 41 56 84 94 82 73
193 197 197 198 189 189 186 175 183 185 181 183 176 175 192 177 167 153 126 148 142 131 132 120 126 172 220 142 134 195 173 270 280 305 29 27 352 323 221 200 130 115 94
196 197 203 203 198 192 190 182 184 182 186 192 180 175 190 175 172 173 162 164 159 164 162 150 194 170 172 117 97 102 37 321 320 328 23 20 336 307 256 230 223 209 205
199 198 201 206 204 204 196 187 187 184 187 188 188 181 184 188 189 176 190 169 161 171 163 180 188 171 186 171 163 138 102 345 348 344 23 20 342 319 291 263 232 216 210
201 202 203 204 208 205 204 195 191 194 193 190 193 193 190 192 193 183 188 179 184 171 173 183 199 166 193 187 154 144 101 57 17 354 24 48 14 354 325 290 241 226 227
206 207 201 204 206 205 202 205 200 196 188 191 193 202 197 195 197 197 193 191 191 185 181 190 189 175 185 169 164 154 28 58 53 13 22 79 68 33 8 322 258 245 244
217 215 206 206 206 207 206 205 199 196 191 199 198 201 201 200 201 202 204 196 195 192 192 202 180 187 163 168 199 225 87 3 5 7 21 19 69 71 48 25 356 240 202
237 227 212 205 208 207 204 201 199 199 193 197 197 205 205 203 208 208 213 208 201 195 198 195 205 195 181 195 203 198 215 207 301 347 328 13 33 40 71 56 55 84 146
243 238 226 213 207 204 201 199 200 200 196 198 199 204 209 206 209 210 213 214 200 202 207 203 210 212 206 206 220 220 234 241 265 276 288 324 54 16 49 84 80 67 92
254 238 234 223 215 204 199 198 194 200 199 201 202 207 211 209 211 213 210 211 204 206 216 225 222 228 238 228 232 230 234 235 240 237 266 273 267 50 1 23 105 88 77
251 245 237 227 216 207 197 196 192 195 195 198 205 210 212 213 216 221 223 217 210 213 218 228 233 234 236 234 240 238 233 230 238 217 223 246 234 217 218 197 184 110 112
257 241 236 228 217 209 202 197 194 192 193 190 195 208 215 217 216 221 223 222 220 224 231 235 232 240 235 226 236 245 245 223 220 222 212 224 238 211 226 210 196 204 182
298 261 242 227 211 201 199 193 181 170 163 171 188 203 213 217 216 216 218 219 223 220 225 227 226 229 223 217 227 237 250 255 219 203 214 215 223 227 225 220 211 194 200
333 311 262 214 197 188 184 184 182 178 170 175 181 193 202 207 208 210 214 216 219 215 214 215 214 220 225 223 221 234 247 265 258 233 207 215 214 221 229 215 227 219 198
345 343 337 148 154 158 165 171 157 130 101 70 78 196 192 196 200 199 202 205 215 210 213 210 212 222 227 234 231 230 239 252 253 257 241 213 211 222 227 228 221 222 214
358 8 33 104 124 141 154 155 144 133 118 100 54 259 212 196 196 194 198 206 207 204 206 211 215 223 235 239 242 241 235 240 243 248 251 242 229 221 218 222 229 219 219
Height
1526 1528 1528 1531 1533 1534 1536 1537 1539 1540 1542 1543 1544 1545 1546 1546 1546 1547 1548 1548 1548 1548 1549 1549 1549 1550 1550 1550 1550 1551 1551 1552 1552 1553 1553 1553 1553 1552 1552 1551 1550 1550 1548
1526 1528 1529 1531 1533 1535 1537 1538 1539 1541 1542 1544 1545 1546 1546 1547 1548 1548 1548 1549 1549 1549 1549 1549 1549 1550 1550 1551 1551 1551 1551 1552 1554 1554 1554 1554 1554 1554 1553 1553 1552 1552 1550
1527 1529 1530 1532 1534 1536 1537 1539 1540 1542 1543 1545 1546 1546 1547 1548 1549 1549 1550 1550 1550 1550 1550 1550 1550 1550 1550 1551 1551 1552 1552 1552 1554 1555 1556 1557 1556 1555 1555 1554 1554 1553 1552
1527 1530 1531 1533 1535 1537 1538 1540 1541 1542 1544 1545 1546 1547 1548 1549 1550 1551 1551 1551 1551 1551 1551 1550 1550 1550 1550 1551 1551 1552 1553 1554 1555 1556 1558 1559 1558 1556 1556 1555 1555 1555 1554
1528 1531 1532 1533 1535 1537 1539 1541 1542 1543 1544 1546 1547 1548 1549 1550 1551 1551 1552 1552 1552 1552 1552 1551 1551 1551 1551 1552 1552 1553 1554 1555 1556 1558 1559 1558 1558 1557 1556 1556 1556 1555 1555
1529 1531 1532 1534 1536 1538 1540 1541 1542 1544 1545 1546 1548 1549 1550 1551 1552 1552 1552 1552 1552 1552 1552 1552 1552 1552 1552 1552 1553 1554 1554 1555 1556 1558 1559 1559 1559 1557 1557 1557 1557 1556 1556
1530 1532 1533 1534 1537 1539 1540 1541 1542 1544 1545 1547 1548 1550 1551 1551 1552 1553 1553 1552 1552 1552 1553 1553 1553 1553 1553 1554 1554 1555 1555 1556 1557 1558 1558 1559 1558 1558 1558 1557 1557 1557 1557
1530 1532 1534 1534 1537 1538 1540 1541 1542 1544 1545 1547 1548 1549 1550 1551 1552 1553 1553 1553 1553 1553 1553 1553 1554 1554 1554 1555 1555 1556 1556 1556 1557 1558 1558 1559 1558 1558 1558 1558 1557 1558 1557
1531 1532 1534 1535 1536 1538 1540 1541 1543 1544 1545 1547 1548 1549 1550 1551 1552 1553 1553 1553 1553 1553 1553 1554 1554 1555 1555 1556 1556 1557 1557 1557 1559 1559 1559 1559 1558 1558 1558 1558 1558 1558 1558
1531 1533 1535 1536 1537 1538 1539 1541 1543 1545 1546 1547 1548 1549 1550 1550 1551 1552 1553 1553 1554 1554 1554 1554 1554 1555 1556 1556 1557 1557 1558 1559 1560 1560 1560 1559 1558 1557 1557 1557 1558 1558 1558
1531 1533 1535 1537 1537 1538 1539 1540 1542 1544 1546 1547 1548 1548 1549 1551 1552 1553 1553 1553 1554 1554 1554 1555 1555 1556 1556 1557 1557 1558 1559 1561 1561 1561 1560 1558 1558 1557 1557 1557 1557 1558 1558
1530 1532 1534 1536 1537 1538 1539 1540 1541 1543 1544 1546 1548 1548 1550 1552 1553 1554 1552 1553 1553 1554 1555 1555 1556 1557 1558 1560 1559 1559 1561 1561 1562 1561 1560 1557 1557 1556 1556 1556 1556 1557 1557
1530 1532 1534 1536 1537 1538 1538 1539 1540 1542 1543 1545 1547 1548 1550 1552 1552 1553 1554 1554 1554 1555 1557 1556 1558 1559 1560 1560 1560 1561 1560 1561 1561 1560 1559 1556 1555 1555 1555 1555 1556 1556 1556
1529 1531 1533 1535 1537 1538 1538 1538 1539 1541 1542 1544 1546 1548 1550 1551 1553 1554 1554 1556 1556 1556 1557 1559 1559 1559 1560 1561 1560 1561 1560 1561 1560 1559 1556 1555 1554 1554 1553 1554 1554 1555 1555
1528 1530 1531 1533 1535 1537 1537 1537 1539 1540 1542 1543 1546 1548 1550 1551 1552 1553 1554 1554 1556 1557 1557 1558 1559 1559 1559 1560 1560 1560 1560 1559 1559 1557 1556 1554 1553 1553 1553 1553 1553 1554 1554
1526 1528 1530 1531 1533 1535 1536 1537 1539 1540 1541 1543 1544 1546 1549 1550 1551 1552 1553 1553 1555 1556 1557 1558 1559 1558 1559 1559 1560 1559 1559 1559 1558 1557 1557 1555 1553 1553 1552 1552 1552 1553 1553
1525 1527 1528 1530 1532 1534 1535 1537 1538 1539 1540 1542 1544 1546 1547 1549 1549 1550 1552 1552 1553 1554 1556 1557 1558 1558 1558 1558 1559 1560 1559 1559 1558 1558 1557 1556 1555 1553 1553 1552 1552 1552 1553
1523 1525 1526 1527 1529 1531 1533 1534 1536 1537 1539 1540 1542 1544 1545 1547 1548 1549 1550 1551 1552 1553 1554 1555 1556 1557 1557 1558 1559 1559 1559 1557 1557 1556 1557 1558 1556 1555 1554 1553 1552 1552 1553
1519 1521 1523 1524 1526 1528 1530 1531 1533 1535 1537 1538 1540 1541 1543 1544 1546 1547 1548 1549 1551 1551 1553 1554 1555 1556 1556 1557 1557 1557 1557 1557 1556 1555 1557 1557 1557 1556 1556 1554 1553 1552 1552
1512 1515 1517 1520 1522 1524 1526 1528 1530 1532 1533 1535 1537 1538 1539 1541 1542 1544 1545 1546 1548 1549 1550 1552 1553 1553 1554 1555 1556 1556 1556 1555 1555 1554 1554 1555 1557 1556 1556 1556 1556 1553 1552
1506 1508 1510 1513 1516 1519 1521 1523 1525 1527 1529 1531 1533 1535 1536 1537 1539 1541 1542 1544 1545 1546 1547 1549 1549 1550 1551 1553 1554 1554 1554 1553 1553 1552 1552 1553 1555 1555 1555 1555 1556 1555 1554
1502 1503 1504 1506 1508 1511 1514 1518 1520 1523 1525 1527 1530 1532 1534 1535 1536 1538 1539 1541 1542 1543 1544 1546 1546 1547 1549 1550 1551 1552 1551 1552 1549 1550 1549 1550 1552 1553 1554 1554 1555 1554 1555
1497 1497 1497 1498 1500 1503 1507 1511 1513 1517 1520 1523 1526 1528 1530 1532 1533 1534 1536 1538 1539 1540 1541 1542 1543 1544 1545 1546 1547 1549 1549 1547 1548 1548 1547 1547 1549 1551 1552 1553 1554 1553 1553
1492 1491 1492 1492 1493 1496 1500 1503 1507 1512 1515 1518 1521 1524 1527 1528 1530 1531 1533 1535 1537 1538 1538 1540 1540 1541 1542 1543 1544 1544 1545 1545 1546 1545 1545 1545 1546 1548 1549 1550 1550 1552 1552
1490 1488 1487 1488 1489 1491 1495 1499 1502 1506 1509 1513 1517 1521 1523 1525 1527 1528 1530 1531 1533 1534 1535 1536 1537 1538 1539 1540 1541 1541 1541 1541 1543 1543 1542 1543 1543 1544 1545 1547 1548 1549 1549
1490 1488 1486 1486 1487 1488 1491 1494 1497 1501 1503 1508 1513 1519 1522 1523 1525 1526 1527 1528 1529 1530 1531 1532 1533 1534 1535 1537 1538 1538 1538 1538 1538 1539 1540 1540 1540 1542 1542 1543 1544 1545 1546